QPF
0.00 0.00 0.00 0.00 0.00 0.00 0.00 0.00 0.00 0.00 0.00 0.00 0.00 0.00 0.00 0.00 0.00 0.00 0.00 0.00 0.00 0.00 0.00 0.00 0.00 0.00 0.00 0.00 0.00 0.00 0.00 0.00 0.00 0.00 0.00 0.00 0.00 0.00 0.00 0.00 0.00 0.00 0.00 0.00 0.00 0.00 0.00
0.00 0.00 0.00 0.00 0.00 0.00 0.00 0.00 0.00 0.00 0.00 0.00 0.00 0.00 0.00 0.00 0.00 0.00 0.00 0.00 0.00 0.00 0.00 0.00 0.00 0.00 0.00 0.00 0.00 0.00 0.00 0.00 0.00 0.00 0.00 0.00 0.00 0.00 0.00 0.00 0.00 0.00 0.00 0.00 0.00 0.00 0.00
0.00 0.00 0.00 0.00 0.00 0.00 0.00 0.00 0.00 0.00 0.00 0.00 0.00 0.00 0.00 0.00 0.00 0.00 0.00 0.00 0.00 0.00 0.00 0.00 0.00 0.00 0.00 0.00 0.00 0.00 0.00 0.00 0.00 0.00 0.00 0.00 0.00 0.00 0.00 0.00 0.00 0.00 0.00 0.00 0.00 0.00 0.00
0.00 0.00 0.00 0.00 0.00 0.00 0.00 0.00 0.00 0.00 0.00 0.00 0.00 0.00 0.00 0.00 0.00 0.00 0.00 0.00 0.00 0.00 0.00 0.00 0.00 0.00 0.00 0.00 0.00 0.00 0.00 0.00 0.00 0.00 0.00 0.00 0.00 0.00 0.00 0.00 0.00 0.00 0.00 0.00 0.00 0.00 0.00
0.00 0.00 0.00 0.00 0.00 0.00 0.00 0.00 0.00 0.00 0.00 0.00 0.00 0.00 0.00 0.00 0.00 0.00 0.00 0.00 0.00 0.00 0.00 0.00 0.00 0.00 0.00 0.00 0.00 0.00 0.00 0.00 0.00 0.00 0.00 0.00 0.00 0.00 0.00 0.00 0.00 0.00 0.00 0.00 0.00 0.00 0.00
0.00 0.00 0.00 0.00 0.00 0.00 0.00 0.00 0.00 0.00 0.00 0.00 0.00 0.00 0.00 0.00 0.00 0.00 0.00 0.00 0.00 0.00 0.00 0.00 0.00 0.00 0.00 0.00 0.00 0.00 0.00 0.00 0.00 0.00 0.00 0.00 0.00 0.00 0.00 0.00 0.00 0.00 0.00 0.00 0.00 0.00 0.00
0.00 0.00 0.00 0.00 0.00 0.00 0.00 0.00 0.00 0.00 0.00 0.00 0.00 0.00 0.00 0.00 0.00 0.00 0.00 0.00 0.00 0.00 0.00 0.00 0.00 0.00 0.00 0.00 0.00 0.00 0.00 0.00 0.00 0.00 0.00 0.00 0.00 0.00 0.00 0.00 0.00 0.00 0.00 0.00 0.00 0.00 0.00
0.00 0.00 0.00 0.00 0.00 0.00 0.00 0.00 0.00 0.00 0.00 0.00 0.00 0.00 0.00 0.00 0.00 0.00 0.00 0.00 0.00 0.00 0.00 0.00 0.00 0.00 0.00 0.00 0.00 0.00 0.00 0.00 0.00 0.00 0.00 0.00 0.00 0.00 0.00 0.00 0.00 0.00 0.00 0.00 0.00 0.00 0.00
0.00 0.00 0.00 0.00 0.00 0.00 0.00 0.00 0.00 0.00 0.00 0.00 0.00 0.00 0.00 0.00 0.00 0.00 0.00 0.00 0.00 0.00 0.00 0.00 0.00 0.00 0.00 0.00 0.00 0.00 0.00 0.00 0.00 0.00 0.00 0.00 0.00 0.00 0.00 0.00 0.00 0.00 0.00 0.00 0.00 0.00 0.00
0.00 0.00 0.00 0.00 0.00 0.00 0.00 0.00 0.00 0.00 0.00 0.00 0.00 0.00 0.00 0.00 0.00 0.00 0.00 0.00 0.00 0.00 0.00 0.00 0.00 0.00 0.00 0.00 0.00 0.00 0.00 0.00 0.00 0.00 0.00 0.00 0.00 0.00 0.00 0.00 0.00 0.00 0.00 0.00 0.00 0.00 0.00
0.00 0.00 0.00 0.00 0.00 0.00 0.00 0.00 0.00 0.00 0.00 0.00 0.00 0.00 0.00 0.00 0.00 0.00 0.00 0.00 0.00 0.00 0.00 0.00 0.00 0.00 0.00 0.00 0.00 0.00 0.00 0.00 0.00 0.00 0.00 0.00 0.00 0.00 0.00 0.00 0.00 0.00 0.00 0.00 0.00 0.00 0.00
0.00 0.00 0.00 0.00 0.00 0.00 0.00 0.00 0.00 0.00 0.00 0.00 0.00 0.00 0.00 0.00 0.00 0.00 0.00 0.00 0.00 0.00 0.00 0.00 0.00 0.00 0.00 0.00 0.00 0.00 0.00 0.00 0.00 0.00 0.00 0.00 0.00 0.00 0.00 0.00 0.00 0.00 0.00 0.00 0.00 0.00 0.00
0.00 0.00 0.00 0.00 0.00 0.00 0.00 0.00 0.00 0.00 0.00 0.00 0.00 0.00 0.00 0.00 0.00 0.00 0.00 0.00 0.00 0.00 0.00 0.00 0.00 0.00 0.00 0.00 0.00 0.00 0.00 0.00 0.00 0.00 0.00 0.00 0.00 0.00 0.00 0.00 0.00 0.00 0.00 0.00 0.00 0.00 0.00
0.00 0.00 0.00 0.00 0.00 0.00 0.00 0.00 0.00 0.00 0.00 0.00 0.00 0.00 0.00 0.00 0.00 0.00 0.00 0.00 0.00 0.00 0.00 0.00 0.00 0.00 0.00 0.00 0.00 0.00 0.00 0.00 0.00 0.00 0.00 0.00 0.00 0.00 0.00 0.00 0.00 0.00 0.00 0.00 0.00 0.00 0.00
0.00 0.00 0.00 0.00 0.00 0.00 0.00 0.00 0.00 0.00 0.00 0.00 0.00 0.00 0.00 0.00 0.00 0.00 0.00 0.00 0.00 0.00 0.00 0.00 0.00 0.00 0.00 0.00 0.00 0.00 0.00 0.00 0.00 0.00 0.00 0.00 0.00 0.00 0.00 0.00 0.00 0.00 0.00 0.00 0.00 0.00 0.00
0.00 0.00 0.00 0.00 0.00 0.00 0.00 0.00 0.00 0.00 0.00 0.00 0.00 0.00 0.00 0.00 0.00 0.00 0.00 0.00 0.00 0.00 0.00 0.00 0.00 0.00 0.00 0.00 0.00 0.00 0.00 0.00 0.00 0.00 0.00 0.00 0.00 0.00 0.00 0.00 0.00 0.00 0.00 0.00 0.00 0.00 0.00
0.00 0.00 0.00 0.00 0.00 0.00 0.00 0.00 0.00 0.00 0.00 0.00 0.00 0.00 0.00 0.00 0.00 0.00 0.00 0.00 0.00 0.00 0.00 0.00 0.00 0.00 0.00 0.00 0.00 0.00 0.00 0.00 0.00 0.00 0.00 0.00 0.00 0.00 0.00 0.00 0.00 0.00 0.00 0.00 0.00 0.00 0.00
0.00 0.00 0.00 0.00 0.00 0.00 0.00 0.00 0.00 0.00 0.00 0.00 0.00 0.00 0.00 0.00 0.00 0.00 0.00 0.00 0.00 0.00 0.00 0.00 0.00 0.00 0.00 0.00 0.00 0.00 0.00 0.00 0.00 0.00 0.00 0.00 0.00 0.00 0.00 0.00 0.00 0.00 0.00 0.00 0.00 0.00 0.00
0.00 0.00 0.00 0.00 0.00 0.00 0.00 0.00 0.00 0.00 0.00 0.00 0.00 0.00 0.00 0.00 0.00 0.00 0.00 0.00 0.00 0.00 0.00 0.00 0.00 0.00 0.00 0.00 0.00 0.00 0.00 0.00 0.00 0.00 0.00 0.00 0.00 0.00 0.00 0.00 0.00 0.00 0.00 0.00 0.00 0.00 0.00
0.00 0.00 0.00 0.00 0.00 0.00 0.00 0.00 0.00 0.00 0.00 0.00 0.00 0.00 0.00 0.00 0.00 0.00 0.00 0.00 0.00 0.00 0.00 0.00 0.00 0.00 0.00 0.00 0.00 0.00 0.00 0.00 0.00 0.00 0.00 0.00 0.00 0.00 0.00 0.00 0.00 0.00 0.00 0.00 0.00 0.00 0.00
0.00 0.00 0.00 0.00 0.00 0.00 0.00 0.00 0.00 0.00 0.00 0.00 0.00 0.00 0.00 0.00 0.00 0.00 0.00 0.00 0.00 0.00 0.00 0.00 0.00 0.00 0.00 0.00 0.00 0.00 0.00 0.00 0.00 0.00 0.00 0.00 0.00 0.00 0.00 0.00 0.00 0.00 0.00 0.00 0.00 0.00 0.00
0.00 0.00 0.00 0.00 0.00 0.00 0.00 0.00 0.00 0.00 0.00 0.00 0.00 0.00 0.00 0.00 0.00 0.00 0.00 0.00 0.00 0.00 0.00 0.00 0.00 0.00 0.00 0.00 0.00 0.00 0.00 0.00 0.00 0.00 0.00 0.00 0.00 0.00 0.00 0.00 0.00 0.00 0.00 0.00 0.00 0.00 0.00
0.00 0.00 0.00 0.00 0.00 0.00 0.00 0.00 0.00 0.00 0.00 0.00 0.00 0.00 0.00 0.00 0.00 0.00 0.00 0.00 0.00 0.00 0.00 0.00 0.00 0.00 0.00 0.00 0.00 0.00 0.00 0.00 0.00 0.00 0.00 0.00 0.00 0.00 0.00 0.00 0.00 0.00 0.00 0.00 0.00 0.00 0.00
0.00 0.00 0.00 0.00 0.00 0.00 0.00 0.00 0.00 0.00 0.00 0.00 0.00 0.00 0.00 0.00 0.00 0.00 0.00 0.00 0.00 0.00 0.00 0.00 0.00 0.00 0.00 0.00 0.00 0.00 0.00 0.00 0.00 0.00 0.00 0.00 0.00 0.00 0.00 0.00 0.00 0.00 0.00 0.00 0.00 0.00 0.00
0.00 0.00 0.00 0.00 0.00 0.00 0.00 0.00 0.00 0.00 0.00 0.00 0.00 0.00 0.00 0.00 0.00 0.00 0.00 0.00 0.00 0.00 0.00 0.00 0.00 0.00 0.00 0.00 0.00 0.00 0.00 0.00 0.00 0.00 0.00 0.00 0.00 0.00 0.00 0.00 0.00 0.00 0.00 0.00 0.00 0.00 0.00
0.00 0.00 0.00 0.00 0.00 0.00 0.00 0.00 0.00 0.00 0.00 0.00 0.00 0.00 0.00 0.00 0.00 0.00 0.00 0.00 0.00 0.00 0.00 0.00 0.00 0.00 0.00 0.00 0.00 0.00 0.00 0.00 0.00 0.00 0.00 0.00 0.00 0.00 0.00 0.00 0.00 0.00 0.00 0.00 0.00 0.00 0.00
0.00 0.00 0.00 0.00 0.00 0.00 0.00 0.00 0.00 0.00 0.00 0.00 0.00 0.00 0.00 0.00 0.00 0.00 0.00 0.00 0.00 0.00 0.00 0.00 0.00 0.00 0.00 0.00 0.00 0.00 0.00 0.00 0.00 0.00 0.00 0.00 0.00 0.00 0.00 0.00 0.00 0.00 0.00 0.00 0.00 0.00 0.00
0.00 0.00 0.00 0.00 0.00 0.00 0.00 0.00 0.00 0.00 0.00 0.00 0.00 0.00 0.00 0.00 0.00 0.00 0.00 0.00 0.00 0.00 0.00 0.00 0.00 0.00 0.00 0.00 0.00 0.00 0.00 0.00 0.00 0.00 0.00 0.00 0.00 0.00 0.00 0.00 0.00 0.00 0.00 0.00 0.00 0.00 0.00
0.00 0.00 0.00 0.00 0.00 0.00 0.00 0.00 0.00 0.00 0.00 0.00 0.00 0.00 0.00 0.00 0.00 0.00 0.00 0.00 0.00 0.00 0.00 0.00 0.00 0.00 0.00 0.00 0.00 0.00 0.00 0.00 0.00 0.00 0.00 0.00 0.00 0.00 0.00 0.00 0.00 0.00 0.00 0.00 0.00 0.00 0.00
MSLP
1017.14 1017.43 1017.59 1017.76 1017.68 1017.82 1017.87 1017.44 1017.33 1017.18 1017.14 1016.93 1016.71 1016.63 1016.41 1016.52 1016.31 1016.24 1016.35 1016.63 1016.82 1016.85 1016.75 1016.66 1016.63 1016.58 1016.28 1015.24 1011.75 1008.99 1009.27 1009.74 1010.36 1010.82 1010.97 1011.23 1011.34 1011.39 1011.38 1011.08 1011.15 1011.34 1010.77 1010.73 1010.34 1010.39 1010.78
1016.55 1016.92 1017.04 1017.40 1017.31 1017.28 1017.33 1016.95 1016.95 1016.86 1016.75 1016.52 1016.37 1016.32 1016.07 1016.14 1016.05 1016.03 1016.19 1016.44 1016.68 1016.73 1016.54 1016.57 1016.47 1016.34 1015.87 1013.24 1009.07 1009.16 1009.44 1009.92 1010.11 1010.51 1010.57 1010.78 1010.11 1010.07 1010.48 1010.63 1010.78 1010.75 1010.98 1010.76 1010.65 1010.66 1010.91
1016.09 1016.40 1016.40 1016.69 1016.98 1016.98 1016.88 1016.61 1016.52 1016.46 1016.37 1016.12 1016.06 1015.88 1015.79 1015.75 1015.75 1015.80 1015.97 1016.30 1016.51 1016.38 1016.46 1016.53 1016.37 1016.10 1014.78 1010.73 1008.79 1009.01 1009.18 1009.17 1009.14 1009.40 1009.81 1009.27 1009.21 1009.94 1009.92 1010.38 1010.30 1010.95 1011.49 1011.31 1011.24 1011.20 1011.34
1015.47 1015.77 1015.93 1016.14 1016.45 1016.35 1016.36 1016.22 1016.15 1016.03 1015.94 1015.80 1015.67 1015.53 1015.39 1015.38 1015.45 1015.58 1015.91 1016.15 1016.25 1016.27 1016.37 1016.27 1016.22 1015.78 1012.94 1009.22 1008.73 1008.78 1008.59 1008.45 1008.36 1008.91 1008.75 1008.21 1008.45 1009.21 1009.39 1009.96 1010.82 1011.50 1012.09 1012.29 1011.74 1011.66 1012.12
1014.80 1015.27 1015.41 1015.60 1015.82 1015.72 1015.69 1015.77 1015.65 1015.59 1015.51 1015.44 1015.29 1015.09 1014.99 1015.02 1015.14 1015.47 1015.81 1016.09 1016.20 1016.27 1016.30 1016.28 1016.08 1015.24 1011.76 1008.91 1008.72 1008.02 1008.10 1008.03 1007.91 1008.35 1008.44 1007.84 1008.28 1009.58 1010.03 1010.95 1012.13 1012.65 1012.73 1012.67 1012.34 1012.07 1012.47
1014.22 1014.76 1015.01 1015.14 1015.40 1015.16 1015.21 1015.14 1015.26 1015.15 1015.17 1015.04 1014.82 1014.61 1014.56 1014.67 1014.85 1015.33 1015.81 1016.10 1016.04 1016.16 1016.18 1015.96 1015.35 1014.56 1010.84 1009.15 1008.39 1007.85 1007.80 1007.58 1007.76 1007.99 1008.14 1008.64 1009.62 1010.55 1011.34 1011.75 1012.62 1012.75 1012.78 1012.92 1012.77 1012.71 1013.24
1013.68 1014.07 1014.43 1014.67 1014.85 1014.79 1014.83 1014.63 1014.82 1014.64 1014.80 1014.56 1014.43 1014.28 1014.17 1014.42 1014.62 1015.17 1015.72 1016.00 1016.12 1015.62 1015.09 1013.49 1012.75 1011.72 1010.15 1008.83 1008.09 1007.77 1007.78 1007.71 1008.10 1008.55 1009.68 1010.23 1010.98 1011.46 1011.81 1011.89 1011.87 1012.13 1012.65 1012.98 1013.01 1013.00 1014.12
1013.05 1013.42 1013.80 1014.23 1014.25 1014.36 1014.43 1014.23 1014.32 1014.20 1014.39 1014.21 1013.99 1013.93 1013.96 1014.26 1014.59 1015.06 1015.35 1014.62 1012.84 1012.38 1012.62 1011.48 1011.34 1010.76 1009.71 1009.05 1008.61 1008.18 1007.90 1008.56 1008.83 1009.82 1010.18 1010.96 1011.52 1011.63 1011.68 1011.77 1011.91 1012.33 1012.71 1013.11 1013.49 1013.77 1014.79
1012.41 1012.91 1013.27 1013.45 1013.80 1013.83 1014.07 1013.76 1013.84 1013.89 1013.96 1013.82 1013.66 1013.68 1013.99 1014.14 1014.65 1015.18 1014.33 1012.81 1011.76 1011.66 1011.99 1010.64 1010.01 1009.48 1008.56 1008.53 1008.57 1008.40 1008.41 1008.89 1009.50 1010.27 1010.86 1011.62 1011.82 1011.46 1011.89 1012.40 1012.48 1013.14 1013.17 1013.17 1013.91 1015.14 1015.94
1011.59 1012.42 1012.67 1012.96 1013.31 1013.47 1013.52 1013.23 1013.45 1013.65 1013.55 1013.36 1013.39 1013.55 1013.90 1013.90 1014.98 1013.82 1013.12 1011.72 1011.40 1011.54 1011.93 1010.62 1009.27 1008.18 1007.96 1008.12 1008.61 1008.52 1008.53 1009.10 1010.04 1011.05 1011.60 1012.26 1012.17 1012.14 1012.36 1012.81 1012.98 1013.26 1013.33 1013.56 1014.60 1015.64 1016.77
1010.91 1011.81 1012.16 1012.20 1012.75 1013.05 1013.08 1012.91 1013.03 1013.33 1013.09 1012.95 1013.23 1013.33 1013.59 1013.34 1013.59 1013.15 1011.80 1011.30 1011.30 1011.74 1012.15 1010.64 1009.07 1007.96 1008.09 1008.60 1008.96 1008.95 1008.99 1009.35 1010.47 1011.37 1012.12 1013.01 1012.76 1012.69 1012.78 1013.01 1013.19 1013.63 1013.74 1014.47 1015.25 1016.65 1017.29
1010.23 1011.19 1011.38 1011.81 1012.30 1012.68 1012.60 1012.54 1012.52 1012.91 1012.67 1012.63 1012.99 1013.09 1013.59 1013.69 1013.62 1011.79 1011.30 1011.17 1011.57 1012.79 1011.93 1010.43 1009.22 1008.71 1008.94 1009.16 1009.52 1009.78 1009.91 1010.11 1011.03 1012.02 1012.57 1013.09 1012.93 1012.92 1012.99 1012.95 1013.15 1013.71 1014.71 1015.82 1016.84 1017.81 1018.70
1009.65 1010.50 1011.10 1011.26 1011.82 1012.25 1012.14 1012.19 1012.05 1012.39 1012.24 1012.35 1012.72 1012.79 1012.88 1012.43 1012.12 1011.25 1011.30 1011.90 1013.27 1012.89 1011.59 1010.79 1010.02 1009.68 1009.77 1010.13 1010.48 1010.83 1011.65 1012.09 1012.55 1013.33 1014.21 1013.94 1013.75 1013.40 1013.14 1013.26 1013.55 1014.18 1015.59 1017.35 1018.79 1019.32 1019.83
1008.92 1009.80 1010.45 1010.93 1011.27 1011.70 1011.80 1011.70 1011.62 1011.88 1011.83 1012.03 1012.34 1012.72 1012.31 1011.99 1011.31 1011.27 1011.86 1013.15 1013.67 1012.24 1011.37 1010.40 1010.18 1010.37 1010.51 1010.81 1011.65 1012.08 1012.74 1013.47 1013.54 1013.83 1014.71 1014.78 1014.62 1014.01 1013.68 1013.71 1014.06 1014.87 1015.99 1017.68 1019.46 1020.65 1020.49
1008.20 1009.23 1009.89 1010.54 1010.89 1011.08 1011.38 1011.20 1011.19 1011.50 1011.48 1011.85 1012.21 1012.58 1012.30 1011.23 1011.16 1011.42 1013.00 1014.28 1013.11 1011.95 1010.77 1010.41 1010.58 1010.90 1011.11 1011.39 1011.97 1012.79 1013.67 1014.18 1014.29 1014.33 1014.67 1015.03 1014.98 1014.35 1013.99 1013.87 1014.39 1015.12 1016.43 1017.65 1019.76 1021.74 1021.55
1007.77 1008.72 1009.40 1010.10 1010.35 1010.73 1010.82 1010.79 1010.78 1011.17 1011.10 1011.50 1011.72 1012.29 1011.91 1011.07 1011.04 1011.99 1013.65 1013.87 1012.57 1011.18 1010.27 1010.15 1010.69 1010.97 1011.54 1012.00 1012.66 1013.48 1014.24 1014.63 1014.72 1014.72 1014.60 1015.17 1015.54 1015.15 1014.54 1014.37 1014.66 1015.00 1016.47 1018.10 1019.99 1022.15 1022.98
1007.19 1008.27 1009.11 1009.70 1009.83 1010.38 1010.33 1010.41 1010.41 1010.85 1010.81 1011.14 1011.57 1012.39 1011.79 1011.24 1011.35 1013.21 1014.42 1013.65 1012.01 1010.53 1009.82 1009.99 1010.47 1011.06 1011.57 1012.38 1013.19 1014.19 1014.99 1015.26 1015.14 1014.99 1015.01 1015.48 1016.03 1016.43 1015.68 1015.69 1015.74 1015.96 1016.93 1018.73 1020.60 1022.30 1023.11
1006.81 1007.99 1008.78 1009.13 1009.71 1009.76 1009.91 1009.95 1010.13 1010.55 1010.63 1011.02 1011.71 1012.90 1011.88 1011.50 1013.11 1014.43 1014.12 1012.79 1011.46 1010.44 1009.69 1009.87 1010.24 1010.84 1011.77 1012.78 1013.94 1014.59 1015.14 1015.44 1015.43 1015.44 1015.88 1016.40 1017.25 1017.73 1017.21 1016.43 1016.11 1016.32 1017.33 1018.80 1021.27 1022.96 1023.62
1006.52 1007.61 1008.29 1009.00 1009.24 1009.29 1009.63 1009.51 1009.88 1010.08 1010.02 1010.71 1011.94 1012.70 1012.04 1011.84 1013.75 1014.71 1013.65 1012.53 1011.41 1010.53 1010.22 1010.21 1010.67 1011.20 1011.93 1013.21 1014.53 1015.19 1015.57 1015.82 1015.74 1016.00 1016.53 1016.95 1018.03 1019.04 1018.57 1017.73 1016.96 1017.04 1017.75 1019.01 1020.66 1022.19 1023.31
1006.24 1007.20 1008.07 1008.57 1008.92 1009.03 1009.25 1009.07 1009.63 1009.72 1009.82 1010.21 1011.94 1013.22 1013.37 1013.30 1013.74 1013.80 1013.59 1012.56 1011.49 1010.65 1010.53 1010.56 1011.03 1011.48 1012.43 1013.97 1014.68 1015.64 1016.00 1016.16 1016.21 1016.57 1017.10 1017.42 1018.95 1019.48 1019.43 1018.71 1018.32 1018.16 1018.45 1019.27 1020.37 1021.94 1022.63
1006.23 1006.93 1007.91 1008.34 1008.78 1008.82 1008.80 1008.81 1009.43 1009.42 1009.67 1009.79 1011.55 1012.59 1012.33 1013.70 1014.21 1013.82 1013.31 1012.67 1011.79 1011.28 1010.98 1011.04 1011.58 1012.25 1013.13 1014.67 1015.40 1016.03 1016.36 1016.64 1016.87 1017.26 1017.89 1018.71 1020.31 1020.83 1020.65 1020.09 1019.31 1018.95 1019.02 1019.47 1020.19 1020.75 1021.51
1006.21 1006.79 1007.45 1008.28 1008.55 1008.47 1008.28 1008.79 1009.07 1009.16 1009.69 1010.01 1011.30 1012.06 1012.43 1013.04 1013.33 1013.85 1013.43 1012.79 1012.15 1011.78 1011.67 1011.99 1012.60 1013.24 1013.75 1014.66 1015.18 1016.09 1016.59 1017.09 1017.39 1018.22 1019.26 1020.43 1021.96 1022.43 1022.33 1021.51 1020.84 1019.97 1019.39 1019.51 1019.75 1020.11 1020.53
1006.03 1006.69 1007.55 1008.18 1008.08 1007.95 1008.20 1008.72 1008.70 1008.83 1008.98 1009.93 1010.63 1010.86 1011.21 1013.55 1013.82 1013.98 1013.50 1012.75 1012.31 1012.19 1012.67 1012.65 1013.09 1014.00 1015.05 1015.55 1015.85 1016.33 1016.88 1017.34 1017.85 1018.94 1020.71 1021.96 1023.22 1024.25 1024.29 1023.28 1021.95 1020.77 1018.99 1018.85 1018.85 1019.28 1019.79
1005.98 1006.83 1007.62 1007.68 1007.65 1007.88 1008.36 1008.51 1008.43 1008.54 1008.39 1008.95 1009.96 1010.61 1011.76 1013.93 1013.83 1013.45 1013.07 1012.69 1012.73 1012.85 1013.28 1013.78 1013.96 1014.52 1016.17 1016.20 1016.47 1017.11 1018.04 1018.78 1019.20 1020.27 1020.94 1022.94 1024.38 1025.35 1025.97 1024.69 1023.31 1019.76 1018.71 1018.35 1018.59 1019.09 1019.61
1006.12 1006.85 1007.37 1007.37 1007.60 1008.06 1008.45 1008.23 1008.26 1008.19 1008.17 1008.72 1009.45 1010.24 1011.34 1013.24 1013.21 1013.07 1012.98 1013.14 1013.50 1013.78 1014.43 1014.73 1015.01 1015.26 1016.01 1017.12 1018.72 1020.09 1020.78 1020.76 1021.25 1021.72 1022.11 1022.66 1024.48 1026.47 1026.95 1025.76 1023.15 1019.96 1018.78 1018.38 1018.48 1019.09 1019.63
1006.13 1006.95 1007.23 1007.43 1007.83 1008.40 1008.49 1008.27 1008.18 1007.85 1008.11 1008.22 1009.59 1009.66 1010.27 1011.65 1012.87 1012.26 1013.00 1013.23 1013.89 1014.66 1015.65 1015.85 1015.96 1016.14 1017.08 1019.35 1020.84 1021.98 1022.31 1022.17 1022.54 1022.62 1023.00 1023.78 1024.45 1025.71 1027.15 1026.49 1023.66 1019.66 1018.15 1017.70 1018.20 1018.97 1019.12
1006.64 1006.90 1007.18 1007.60 1008.24 1008.51 1008.36 1008.18 1008.30 1008.00 1008.02 1008.51 1009.32 1009.25 1009.46 1011.28 1012.17 1012.11 1012.54 1012.99 1013.76 1014.77 1015.90 1016.37 1016.63 1017.33 1018.08 1020.64 1022.69 1023.58 1023.27 1022.74 1022.86 1023.15 1023.61 1024.52 1025.68 1026.26 1026.79 1025.42 1022.05 1019.07 1018.14 1017.91 1018.75 1018.75 1018.90
1006.53 1006.99 1007.46 1008.10 1008.46 1008.67 1008.29 1008.07 1007.74 1007.08 1007.37 1008.08 1009.29 1009.03 1009.18 1011.31 1012.19 1011.93 1011.73 1012.36 1013.29 1014.00 1015.31 1016.28 1017.24 1018.07 1019.59 1021.55 1023.11 1023.75 1023.67 1022.95 1022.90 1022.62 1022.79 1023.48 1024.43 1025.32 1025.61 1024.30 1020.76 1018.13 1018.45 1018.23 1017.61 1017.91 1018.41
1006.81 1007.28 1007.95 1008.44 1008.71 1008.67 1008.49 1008.40 1008.44 1008.32 1008.15 1007.86 1009.21 1009.24 1009.23 1010.62 1012.35 1012.12 1011.98 1011.75 1011.81 1012.18 1013.58 1015.50 1016.26 1017.29 1018.39 1020.89 1022.77 1023.39 1023.71 1023.49 1023.17 1022.78 1021.88 1022.26 1021.40 1021.82 1022.15 1020.15 1018.40 1017.60 1017.00 1016.69 1017.08 1017.58 1018.41
Thickness
5626 5625 5623 5623 5622 5619 5616 5618 5615 5614 5611 5612 5614 5614 5614 5611 5612 5612 5612 5611 5611 5612 5613 5615 5617 5618 5623 5632 5650 5687 5688 5687 5684 5682 5680 5678 5673 5675 5671 5679 5683 5682 5691 5696 5698 5699 5698
5624 5623 5621 5620 5621 5620 5616 5618 5614 5612 5612 5612 5613 5612 5613 5610 5610 5611 5610 5609 5609 5609 5613 5614 5615 5618 5624 5633 5684 5685 5686 5684 5684 5682 5683 5682 5687 5691 5684 5683 5682 5689 5690 5693 5698 5698 5699
5621 5620 5619 5620 5618 5616 5614 5616 5614 5612 5612 5612 5612 5612 5611 5609 5608 5609 5609 5608 5607 5610 5612 5613 5615 5621 5630 5651 5685 5686 5688 5689 5694 5693 5689 5699 5703 5694 5693 5683 5697 5688 5680 5686 5691 5694 5694
5618 5618 5616 5618 5616 5616 5614 5614 5613 5612 5612 5612 5612 5611 5610 5609 5609 5609 5607 5606 5607 5609 5611 5614 5615 5621 5638 5678 5686 5687 5692 5693 5701 5700 5704 5712 5710 5701 5702 5700 5686 5680 5671 5658 5681 5689 5687
5614 5614 5613 5616 5616 5616 5615 5612 5612 5611 5611 5611 5612 5611 5609 5609 5610 5608 5606 5606 5607 5609 5611 5612 5616 5623 5640 5680 5679 5695 5697 5691 5703 5704 5707 5717 5711 5691 5690 5673 5657 5657 5651 5663 5672 5684 5685
5609 5609 5610 5612 5612 5615 5614 5613 5610 5611 5610 5611 5612 5613 5611 5610 5611 5608 5606 5606 5608 5609 5611 5614 5620 5626 5655 5663 5682 5695 5701 5703 5699 5702 5700 5696 5684 5673 5667 5661 5639 5656 5662 5660 5662 5678 5677
5603 5606 5607 5609 5610 5612 5611 5612 5609 5612 5610 5612 5613 5614 5613 5613 5613 5609 5607 5607 5612 5616 5618 5636 5642 5647 5658 5675 5689 5691 5700 5699 5698 5690 5670 5676 5662 5656 5667 5674 5677 5677 5666 5660 5664 5680 5655
5597 5601 5604 5604 5608 5609 5608 5610 5609 5611 5610 5612 5614 5615 5614 5614 5613 5610 5610 5619 5634 5638 5629 5649 5650 5654 5667 5676 5668 5683 5699 5682 5682 5665 5676 5660 5654 5672 5674 5675 5678 5671 5664 5662 5668 5667 5657
5591 5595 5599 5604 5604 5607 5605 5608 5609 5610 5610 5612 5615 5615 5614 5615 5613 5611 5620 5633 5646 5649 5630 5649 5660 5662 5674 5680 5669 5676 5688 5681 5674 5666 5665 5653 5666 5679 5671 5661 5662 5657 5658 5666 5659 5650 5651
5587 5589 5594 5600 5600 5601 5604 5608 5608 5608 5611 5613 5614 5615 5614 5619 5614 5623 5629 5646 5651 5652 5612 5638 5659 5673 5681 5682 5668 5689 5693 5683 5671 5653 5660 5657 5666 5667 5663 5658 5659 5651 5668 5669 5653 5644 5625
5580 5583 5589 5598 5596 5597 5601 5605 5607 5607 5611 5614 5614 5615 5618 5624 5626 5628 5645 5652 5655 5647 5578 5646 5661 5688 5682 5672 5673 5677 5692 5685 5665 5664 5662 5650 5657 5656 5655 5658 5663 5656 5667 5662 5659 5635 5633
5574 5578 5587 5590 5591 5592 5598 5603 5607 5606 5612 5614 5614 5617 5619 5622 5625 5643 5652 5656 5651 5601 5595 5644 5663 5663 5664 5670 5671 5674 5674 5681 5676 5658 5657 5656 5667 5663 5661 5667 5668 5668 5654 5642 5635 5627 5599
5566 5571 5577 5585 5587 5588 5595 5599 5606 5607 5611 5613 5615 5619 5624 5632 5637 5650 5654 5645 5599 5586 5646 5642 5649 5659 5659 5656 5658 5659 5651 5646 5643 5633 5631 5644 5647 5655 5663 5658 5661 5653 5636 5600 5602 5587 5592
5559 5565 5572 5577 5583 5585 5590 5598 5604 5607 5611 5613 5617 5619 5628 5636 5646 5651 5648 5621 5607 5631 5638 5658 5657 5655 5650 5655 5647 5648 5644 5634 5644 5643 5625 5621 5611 5644 5655 5653 5648 5644 5636 5602 5602 5579 5602
5555 5558 5565 5570 5576 5582 5586 5596 5603 5606 5610 5612 5616 5619 5629 5642 5647 5650 5629 5589 5611 5630 5655 5654 5653 5645 5647 5652 5648 5640 5634 5632 5639 5642 5630 5621 5625 5649 5654 5657 5653 5644 5621 5632 5596 5579 5585
5549 5554 5560 5565 5573 5577 5585 5593 5601 5604 5609 5612 5617 5620 5628 5642 5648 5641 5612 5605 5631 5652 5663 5660 5641 5646 5636 5642 5640 5633 5633 5636 5636 5639 5644 5635 5620 5641 5650 5655 5652 5646 5641 5613 5592 5586 5575
5547 5550 5554 5561 5569 5573 5584 5591 5599 5601 5608 5612 5615 5611 5628 5640 5644 5621 5599 5612 5640 5663 5667 5660 5646 5642 5643 5636 5635 5628 5624 5630 5635 5639 5640 5638 5625 5624 5639 5632 5630 5631 5626 5612 5601 5580 5571
5544 5545 5550 5558 5562 5573 5581 5589 5597 5599 5606 5610 5608 5600 5626 5636 5611 5598 5612 5631 5650 5659 5666 5662 5658 5654 5641 5638 5626 5624 5623 5627 5632 5638 5631 5631 5612 5591 5624 5636 5641 5641 5630 5614 5579 5592 5552
5540 5543 5549 5552 5561 5571 5578 5589 5594 5598 5607 5609 5601 5605 5623 5630 5593 5574 5620 5637 5650 5656 5656 5657 5652 5652 5648 5630 5618 5621 5622 5629 5631 5631 5630 5631 5605 5584 5602 5619 5630 5633 5629 5611 5595 5573 5578
5538 5543 5546 5551 5560 5568 5576 5588 5591 5597 5606 5612 5600 5590 5603 5612 5612 5617 5625 5633 5642 5655 5655 5655 5651 5649 5640 5626 5622 5616 5620 5627 5631 5631 5625 5628 5609 5604 5592 5610 5614 5620 5622 5612 5603 5568 5577
5535 5543 5543 5549 5557 5567 5577 5586 5588 5597 5605 5611 5602 5600 5615 5590 5603 5619 5627 5633 5638 5640 5654 5653 5648 5644 5635 5621 5620 5615 5621 5624 5628 5627 5622 5618 5604 5606 5606 5605 5614 5616 5615 5606 5601 5596 5583
5533 5541 5544 5548 5555 5567 5578 5581 5587 5596 5602 5605 5602 5605 5610 5611 5619 5617 5620 5629 5635 5642 5646 5642 5635 5635 5636 5619 5625 5613 5618 5619 5622 5619 5611 5601 5585 5588 5599 5594 5593 5603 5605 5598 5597 5598 5592
5534 5538 5542 5546 5557 5568 5574 5579 5588 5596 5605 5602 5608 5616 5620 5592 5606 5608 5611 5632 5636 5641 5636 5640 5634 5624 5618 5622 5624 5619 5618 5616 5618 5613 5593 5578 5559 5565 5574 5563 5574 5576 5596 5602 5606 5601 5590
5533 5536 5539 5548 5558 5565 5570 5577 5587 5596 5608 5612 5613 5615 5607 5587 5598 5612 5626 5634 5633 5637 5629 5630 5631 5623 5618 5618 5619 5613 5605 5602 5603 5595 5594 5566 5551 5529 5541 5537 5554 5601 5603 5603 5600 5593 5584
5530 5535 5540 5549 5557 5562 5567 5577 5586 5596 5606 5612 5614 5615 5611 5581 5605 5618 5622 5622 5621 5620 5618 5620 5621 5623 5618 5607 5584 5587 5565 5580 5574 5581 5579 5577 5542 5533 5528 5529 5565 5598 5599 5590 5589 5584 5577
5530 5533 5540 5549 5553 5557 5564 5574 5585 5598 5605 5611 5609 5616 5618 5607 5601 5621 5615 5619 5602 5606 5602 5611 5612 5611 5604 5562 5560 5556 5565 5580 5572 5580 5568 5560 5540 5539 5515 5520 5534 5586 5597 5597 5589 5564 5572
5526 5533 5541 5547 5548 5555 5564 5573 5582 5595 5604 5606 5608 5617 5621 5604 5609 5616 5610 5611 5609 5602 5589 5601 5606 5602 5594 5541 5524 5543 5559 5571 5563 5554 5539 5525 5506 5509 5483 5491 5539 5577 5588 5588 5559 5561 5566
5527 5534 5540 5542 5546 5553 5564 5574 5585 5600 5605 5605 5604 5613 5618 5601 5605 5614 5620 5612 5609 5606 5590 5595 5588 5580 5556 5550 5531 5529 5528 5547 5552 5565 5555 5548 5527 5504 5503 5493 5546 5582 5575 5565 5571 5567 5560
5528 5533 5536 5539 5545 5553 5562 5571 5577 5586 5595 5604 5600 5606 5614 5608 5601 5606 5611 5617 5620 5617 5601 5589 5594 5588 5573 5548 5529 5533 5534 5533 5524 5546 5562 5551 5554 5541 5545 5552 5574 5574 5576 5577 5566 5557 5545